Location: Leipzig
(51.3397°N, 12.3731°E)
Time: 19:31:58
(UTC+01:00)

ARIANE 6 FM1 Upper Stage - Pass Details

Date: 15 December 2025
Orbit: 522 x 610 km, 62.0° (Epoch: 19 January)

Event Time Altitude Azimuth Distance (km) Brightness Sun altitude
Rises 05:55:18 0° 187° (S) 2,686 6.2 -19.5°
Reaches altitude 10° 05:57:54 10° 171° (S) 1,786 5.5 -19.1°
Maximum altitude 06:00:55 21° 122° (ESE) 1,234 5.3 -18.7°
Drops below altitude 10° 06:03:56 10° 72° (ENE) 1,773 6.1 -18.2°
Sets 06:06:30 0° 56° (ENE) 2,661 6.7 -17.8°
